Regional Weather Roundup
Issued by NWS

Home | Current Version | Previous Version | Text Only | Print | Product List | Glossary Off
Versions: 1 2 3 4 5 6 7 8 9 10 11 12 13 14 15 16 17 18 19 20 21 22 23 24 25 26 27 28 29 30 31 32 33 34 35 36 37 38 39 40 41 42 43 44 45 46 47 48 49 50

000
ASUS42 KTBW 072317
RWRFL
FLORIDA REGIONAL WEATHER ROUNDUP
NATIONAL WEATHER SERVICE TAMPA BAY RUSKIN FL
700 PM EDT TUE JUL 07 2015

NOTE: "FAIR" INDICATES FEW OR NO CLOUDS BELOW 12,000 FEET WITH NO
SIGNIFICANT WEATHER AND/OR OBSTRUCTIONS TO VISIBILITY.


FLZ001>010-012>015-112-114-115-080000-
PANHANDLE FLORIDA

CITY           SKY/WX    TMP DP  RH WIND       PRES   REMARKS
PENSACOLA      MOSUNNY   86  72  62 S12       30.11R
PENSACOLA NAS  MOSUNNY   86  73  65 SW9       30.11S
MILTON NAS     PTSUNNY   86  72  62 S10       30.11
CRESTVIEW      MOSUNNY   89  73  59 W10       30.12R HX  97
DUKE FIELD     PTSUNNY   89  73  58 SW9       30.10R HX  96
VALPARAISO     MOSUNNY   88  74  62 SW9       30.10S HX  96
MARY ESTHER    SUNNY     87  73  62 SW7       30.10S
TRI COUNTY     FAIR      91  71  51 VRB3      30.10S HX  97
PANAMA CITY    FAIR      88  71  57 SW12      30.09S
TYNDALL AFB    PTSUNNY   86  74  67 W7        30.11S
APALACHICOLA   MOSUNNY   91  71  51 SW9       30.11S HX  97

STATION/POSITION SKY/WX   TEMP    WIND        PRES    WAVE   SWELL
                          AIR SEA DIR/SP/G            HT/PER HT/PER
                          (F)     (DEG/KT/KT) (MB)    (FT/S) (FT/S)
30.1N   87.6W              86 87  210/  6/  6 1019.0F   1/ 5   2/ 5
29.2N   88.2W              85 89  160/  6/  8 1019.8F   2/ 8   2/ 8
28.8N   86.0W              84 87  110/  4/  6 1020.1F   1/ 8   2/ 8
PANAMA CITY BEAC           84 84  240/  8/  9 1019.4F
CAPE SAN BLAS    NOT AVBL
TOWER C                    84     270/  6/  7 1020.0R
28.5N   84.5W              85 87   90/  4/  6 1020.1R   1/10   2/10

$$
FLZ011-016>038-118-127-128-134-139-239-080000-
NORTH FLORIDA

CITY           SKY/WX    TMP DP  RH WIND       PRES   REMARKS
MARIANNA       SUNNY     92  71  50 NW5       30.09S HX  98
TALLAHASSEE    MOSUNNY   94  70  45 CALM      30.09F HX 100
PERRY          CLOUDY    87  73  62 S6        30.10S
CROSS CITY       N/A     88  74  63 SW7       30.10F HX  96
LAKE CITY      CLOUDY    79  72  78 SE8       30.12R THUNDER
GAINESVILLE    TSTM      74  70  87 SE8       30.14S
MAYPORT NAS    PTSUNNY   81  72  74 S15       30.14R
JACKSONVILLE   PTSUNNY   80  74  81 SE7       30.13R
JAX NAS        CLOUDY    83  73  72 S20       30.16R THUNDER
JAX CRAIG      MOSUNNY   83  69  62 S10       30.14R
JAX CECIL      PTSUNNY   73  72  94 S12       30.16R
FERNANDINA BEA FAIR      84  73  70 SE8       30.13R
ST AUGUSTINE   CLOUDY    83  73  72 S7        30.15R

STATION/POSITION SKY/WX   TEMP    WIND        PRES    WAVE   SWELL
                          AIR SEA DIR/SP/G            HT/PER HT/PER
                          (F)     (DEG/KT/KT) (MB)    (FT/S) (FT/S)
SHELL POINT                88     190/  8/ 13   N/A
KEATON BEACH               86     230/  8/  9 1019.4F
CEDAR KEY                  86     250/  4/  5 1020.1F
FERNANDINA                 83 80  140/  6/  8 1019.5F
30.7N   81.3W                 80                N/A     2/ 9
MAYPORT                    82 80  140/ 11/ 14 1020.3S
31.4N   80.9W              80 80  180/  8/ 10 1020.6R   2/ 9   2/ 9
ST AUGUSTINE               77 77  180/  9/ 11 1021.7R

$$
FLZ040-043>046-052-053-057-058-063-144-080000-
INTERIOR CENTRAL FLORIDA

CITY           SKY/WX    TMP DP  RH WIND       PRES   REMARKS
OCALA          MOSUNNY   81  70  69 S7        30.13F
THE VILLAGES     N/A    N/A N/A N/A CALM      30.04F
LEESBURG       CLOUDY    78  72  81 S3        30.14F
SANFORD        CLOUDY    75  70  84 SW9       30.14S
ORLANDO EXEC   LGT RAIN  75  73  93 W3        30.14F
ORLANDO INTL   LGT RAIN  75  73  93 S5        30.14F
KISSIMMEE      LGT RAIN  75  73  94 CALM      30.13F
WINTER HAVEN   CLOUDY    75  72  90 SW3       30.13F
LAKELAND       LGT RAIN  73  73 100 CALM      30.13
OKEECHOBEE     CLOUDY    81  72  74 N3        30.14F

$$
FLZ041-047-054-059-064-141-147-080000-
EAST CENTRAL FLORIDA

CITY           SKY/WX    TMP DP  RH WIND       PRES   REMARKS
ORMOND BEACH   SUNNY     82  72  69 SW3       30.14R
DAYTONA BEACH  PTSUNNY   80  72  76 SW8       30.15R
DELAND           N/A     79  70  73 CALM      30.16S
NEW SMYRNA BEA MOSUNNY   77  72  83 W6        30.15R
JFK SPACE CTR  PTSUNNY   80  69  69 S3        30.13F
TITUSVILLE     PTSUNNY   77  68  73 VRB5      30.14F
CAPE CANAVERAL PTSUNNY   81  71  73 SW2       30.13F
PATRICK AFB    CLOUDY    80  72  76 S7        30.13F
MELBOURNE      CLOUDY    78  73  84 S3        30.13F
VERO BEACH     MOSUNNY   85  70  60 E6        30.14F
FT PIERCE      MOSUNNY   85  73  67 E8        30.13F
STUART         MOSUNNY   84  73  70 E9        30.15S

STATION/POSITION SKY/WX   TEMP    WIND        PRES    WAVE   SWELL
                          AIR SEA DIR/SP/G            HT/PER HT/PER
                          (F)     (DEG/KT/KT) (MB)    (FT/S) (FT/S)
28.5N   80.2W              84 84  170/ 10/ 12 1021.2R
28.9N   78.5W              83 84  180/  6/  8 1021.1S
TRIDENT PIER               81 79  200/  6/  8 1021.6S
28.4N   80.5W                 81                N/A     1/ 8
27.5N   80.2W                 82                N/A     2/ 4

$$
FLZ050-056-061-142-242-148-248-149-249-151-251-155-255-
160-260-080000-
WEST CENTRAL FLORIDA

CITY           SKY/WX    TMP DP  RH WIND       PRES   REMARKS
CRYSTAL RIVER  FAIR      81  72  74 SE5       30.13S THUNDER
INVERNESS      FAIR     N/A N/A N/A SE7       30.14F
BROOKSVILLE    CLOUDY    78  72  81 E6        30.13F
ZEPHYRHILLS    FAIR      72  72 100 CALM      30.13F
CLEARWATER     CLOUDY    80  72  76 SE8       30.12F
TAMPA INTL     CLOUDY    80  68  66 SE7       30.13F
TAMPA EXEC     CLOUDY    77  72  83 CALM      30.13F
PLANT CITY     CLOUDY    75  75 100 SE3       30.14F
MACDILL AFB    CLOUDY    77  74  88 SE7       30.12F
PETER O KNIGHT CLOUDY    81  72  74 S8        30.13F
ST PETERSBURG  CLOUDY    79  70  74 S13       30.11F
SARASOTA       CLOUDY    74  70  87 SE5       30.11F
VENICE         FAIR      79  72  78 SE6       30.13F

STATION/POSITION SKY/WX   TEMP    WIND        PRES    WAVE   SWELL
                          AIR SEA DIR/SP/G            HT/PER HT/PER
                          (F)     (DEG/KT/KT) (MB)    (FT/S) (FT/S)
CEDAR KEY                  86     250/  4/  5 1020.1F
28.5N   84.5W              85 87   90/  4/  6 1020.1R   1/10   2/10
27.3N   84.2W                 88                N/A     1/ 8
CLEARWATER BEACH           85 89   10/  2/  3 1020.6S
MIDDLE TAMPA BAY                  150/ 12/ 16 1021.0R
VENICE                     78 89  130/  7/ 12 1020.6S

$$
FLZ066-069-070-075>078-162-262-165-265-080000-
SOUTHWEST FLORIDA AND KEYS

CITY           SKY/WX    TMP DP  RH WIND       PRES   REMARKS
PUNTA GORDA    CLOUDY    78  70  76 NE3       30.14F
FT MYERS       CLOUDY    82  72  71 NE5       30.11F
SOUTHWEST INTL CLOUDY    82  71  69 NE3       30.12F
NAPLES         PTSUNNY   79  72  78 MISG      30.13R
MARCO ISLAND   CLOUDY    79  72  78 E6        30.13S
MARATHON       SUNNY     87  75  67 SE9       30.08F HX  96
KEY WEST NAS   MOSUNNY   87  74  64 SE16      30.08S HX  95
KEY WEST INTL  SUNNY     87  76  69 SE13      30.08S HX  97

STATION/POSITION SKY/WX   TEMP    WIND        PRES    WAVE   SWELL
                          AIR SEA DIR/SP/G            HT/PER HT/PER
                          (F)     (DEG/KT/KT) (MB)    (FT/S) (FT/S)
VENICE                     78 89  130/  7/ 12 1020.6S
NAPLES                        87              1021.0R
26.0N   85.6W              85 86   80/  8/ 10 1018.8F   2/ 9   2/ 9
DRY TORTUGAS               85     120/ 10/ 11 1018.7F
NW FL BAY                  86     130/ 12/ 15 1019.1
SAND KEY                   85     110/ 14/ 16 1018.5F
SOMBRERO KEY               85     110/ 15/ 16 1019.5S
LONG KEY                   85 88  140/ 12/ 13 1019.7R
MOLASSES REEF              84 86  120/ 11/ 13 1019.3R

$$
FLZ067-068-071>074-168-172>174-080000-
SOUTHEAST FLORIDA

CITY           SKY/WX    TMP DP  RH WIND       PRES   REMARKS
W PALM BEACH   PTSUNNY   85  73  67 SE7       30.14R
FT LAUDER-EXEC PTSUNNY   87  70  56 SE7       30.12R
FT LAUDERDALE  PTSUNNY   86  74  67 SE9       30.12R
POMPANO BEACH  PTSUNNY   85  73  67 E9        30.13R
PEMBROKE PINES PTSUNNY   86  70  58 SE8       30.13R
OPA LOCKA      PTSUNNY   85  72  65 E8        30.12R
MIAMI          PTSUNNY   86  71  60 E9        30.12R
WEST KENDALL   PTSUNNY   86  72  62 SE9       30.12R
HOMESTEAD      PTSUNNY   87  73  64 E10       30.10R

STATION/POSITION SKY/WX   TEMP    WIND        PRES    WAVE   SWELL
                          AIR SEA DIR/SP/G            HT/PER HT/PER
                          (F)     (DEG/KT/KT) (MB)    (FT/S) (FT/S)
PORT EVERGLADES            85     130/ 10/ 13 1019.1F
VIRGINIA KEY               85 89  110/  8/ 11 1018.9F
LAKE WORTH                 84 86  130/  7/  9 1019.8R


USA.gov is the U.S. government's official web portal to all federal, state and local government web resources and services.